CW9300 Weather Reports


time (UTC)temp
C
wind
direction
speed
KPH
gust
KPH
rain 1hr
cm
rain 24hr
cm
rain mn
cm
humidity
%
barometer
mb
20260507122400 9 287 0.0 0.0 0.00 0.13 0.00 65 1013.7
20260507121354 8 287 0.0 0.0 0.00 0.15 0.00 68 1013.7
20260507120408 8 287 0.0 0.0 0.00 0.15 0.00 68 1013.6
20260507115404 7 287 0.0 0.0 0.00 0.20 0.00 70 1013.5
20260507114346 6 287 0.0 0.0 0.00 0.23 0.00 76 1013.4
20260507113341 6 287 0.0 0.0 0.00 0.28 0.00 76 1013.2
20260507112317 5 287 0.0 0.0 0.00 0.30 0.00 75 1013.2
20260507111304 6 287 0.0 0.0 0.00 0.33 0.00 75 1013.0
20260507110306 6 287 0.0 0.0 0.00 0.36 0.00 75 1012.8
20260507105248 6 287 0.0 0.0 0.00 0.38 0.00 75 1012.8
20260507104249 6 287 0.0 0.0 0.00 0.38 0.00 74 1012.7
20260507102126 6 287 0.0 0.0 0.00 0.41 0.00 72 1012.5
20260507101132 6 287 0.0 0.0 0.00 0.41 0.00 72 1012.4
20260507100126 6 287 0.0 0.0 0.00 0.41 0.00 72 1012.3
20260507095058 7 287 0.0 0.0 0.00 0.41 0.00 70 1012.2
20260507094115 7 284 0.0 1.6 0.00 0.41 0.00 68 1012.2
20260507093131 7 278 0.0 0.0 0.00 0.41 0.00 67 1012.2
20260507092142 8 278 0.0 1.6 0.00 0.41 0.00 65 1012.1
20260507091120 8 286 0.0 0.0 0.00 0.41 0.00 64 1012.0
20260507090103 8 287 0.0 0.0 0.00 0.41 0.00 63 1012.0
20260507085053 8 300 0.0 0.0 0.00 0.41 0.00 63 1012.1
20260507084107 9 262 0.0 0.0 0.00 0.41 0.00 63 1012.0
20260507083046 9 259 0.0 3.2 0.00 0.41 0.00 61 1012.2
20260507082045 9 290 0.0 8.0 0.00 0.41 0.00 61 1012.3
20260507081043 9 292 1.6 8.0 0.00 0.41 0.00 60 1012.3
20260507080038 9 344 1.6 8.0 0.00 0.41 0.00 61 1012.3
20260507075043 9 277 1.6 8.0 0.00 0.41 0.00 60 1012.3
20260507074107 9 271 1.6 6.4 0.00 0.41 0.00 61 1012.2
20260507073132 9 259 0.0 4.8 0.00 0.41 0.00 62 1012.3
20260507072131 9 271 0.0 3.2 0.00 0.41 0.00 63 1012.2
20260507071118 9 267 0.0 1.6 0.00 0.41 0.00 62 1012.3
20260507064932 9 279 1.6 11.3 0.00 0.41 0.00 60 1012.4
20260507062804 10 279 1.6 9.7 0.00 0.41 0.00 61 1012.5
20260507061736 10 288 1.6 9.7 0.00 0.41 0.00 60 1012.6
20260507060758 10 294 1.6 9.7 0.00 0.41 0.00 59 1012.4
20260507055736 10 292 1.6 9.7 0.00 0.41 0.00 60 1012.5
20260507054802 10 254 0.0 11.3 0.00 0.41 0.00 59 1012.5
20260507053812 10 308 1.6 11.3 0.00 0.41 0.00 60 1012.4
20260507052834 10 230 0.0 4.8 0.00 0.41 0.00 61 1012.6
20260507051835 10 268 0.0 1.6 0.00 0.41 0.00 61 1012.5
20260507050859 11 261 0.0 0.0 0.00 0.41 0.00 63 1012.5
20260507045904 11 288 0.0 0.0 0.00 0.41 0.00 61 1012.6
20260507044912 11 285 0.0 3.2 0.00 0.41 0.00 59 1012.7
20260507043842 11 282 0.0 0.0 0.00 0.41 0.00 61 1012.8
20260507042827 11 277 1.6 8.0 0.00 0.41 0.00 62 1012.5
20260507041838 11 270 0.0 8.0 0.00 0.41 0.00 63 1012.7
20260507035748 11 258 1.6 4.8 0.00 0.41 0.43 64 1012.5
20260507034742 11 253 1.6 9.7 0.00 0.41 0.43 64 1012.3
20260507033724 11 273 1.6 9.7 0.00 0.41 0.43 67 1012.4
20260507032728 11 265 0.0 6.4 0.00 0.41 0.43 69 1012.4
20260507031752 11 301 1.6 6.4 0.00 0.41 0.43 69 1012.5
20260507030739 12 298 0.0 4.8 0.00 0.41 0.43 70 1012.5
20260507025738 12 294 1.6 14.5 0.00 0.41 0.43 70 1012.4
20260507023532 12 269 1.6 14.5 0.00 0.41 0.43 71 1011.6
20260507022515 12 324 1.6 12.9 0.00 0.41 0.43 72 1011.4
20260507021444 12 267 0.0 4.8 0.00 0.41 0.43 72 1011.5
20260507020452 12 326 0.0 8.0 0.00 0.41 0.43 72 1011.7
20260507014334 12 284 0.0 9.7 0.00 0.41 0.43 72 1012.0
20260507013313 12 259 1.6 8.0 0.00 0.41 0.43 73 1011.7
20260507012329 12 304 1.6 4.8 0.00 0.41 0.43 73 1011.8
20260507011344 12 286 0.0 3.2 0.00 0.41 0.43 73 1011.8
20260507010349 12 297 1.6 9.7 0.00 0.41 0.43 73 1012.1
20260507005414 12 284 1.6 9.7 0.00 0.41 0.43 72 1012.3
20260507004428 12 275 1.6 1.6 0.00 0.41 0.43 73 1011.9
20260507003357 12 263 1.6 6.4 0.00 0.41 0.43 74 1011.5
20260507002358 12 243 1.6 6.4 0.00 0.41 0.43 73 1012.0
20260507001338 12 269 0.0 4.8 0.00 0.41 0.43 73 1011.6
20260507000318 12 281 0.0 4.8 0.00 0.41 0.43 74 1011.4
20260506235316 12 313 1.6 9.7 0.00 0.41 0.43 74 1011.2
20260506234339 12 277 3.2 16.1 0.00 0.41 0.43 74 1011.0
20260506233329 13 257 3.2 16.1 0.00 0.41 0.43 74 1010.7
20260506232348 13 296 4.8 12.9 0.00 0.41 0.43 75 1010.6
20260506231350 13 68 3.2 12.9 0.00 0.41 0.43 74 1010.4
20260506230403 13 264 1.6 9.7 0.00 0.41 0.43 75 1010.2
20260506225343 13 284 1.6 12.9 0.00 0.41 0.43 75 1010.4
20260506224321 13 269 3.2 12.9 0.00 0.41 0.43 75 1010.5
20260506223339 13 292 4.8 11.3 0.00 0.41 0.43 75 1010.2
20260506222306 13 280 4.8 11.3 0.00 0.41 0.43 75 1010.1
20260506221314 13 244 4.8 14.5 0.00 0.41 0.43 75 1010.1
20260506220314 14 223 3.2 14.5 0.00 0.41 0.43 75 1009.9
20260506215321 14 294 3.2 12.9 0.00 0.41 0.43 76 1009.7
20260506214309 14 288 3.2 12.9 0.00 0.41 0.43 76 1009.3
20260506213252 15 312 4.8 12.9 0.00 0.41 0.43 75 1009.2
20260506212240 15 282 4.8 20.9 0.00 0.41 0.43 76 1009.1
20260506210135 15 169 4.8 19.3 0.00 0.41 0.43 77 1008.8
20260506205103 15 293 4.8 14.5 0.00 0.41 0.43 76 1008.5
20260506204112 15 273 1.6 17.7 0.00 0.41 0.43 77 1008.6
20260506203102 16 276 4.8 17.7 0.00 0.41 0.43 77 1008.4
20260506202117 16 263 6.4 20.9 0.00 0.41 0.43 76 1008.4
20260506201139 16 268 8.0 20.9 0.00 0.41 0.43 76 1008.3
20260506200204 16 258 9.7 20.9 0.00 0.41 0.43 78 1008.3
20260506195222 16 248 6.4 22.5 0.00 0.41 0.43 78 1008.1
20260506194241 16 246 6.4 22.5 0.00 0.41 0.43 78 1008.0
20260506193250 17 240 3.2 11.3 0.00 0.41 0.43 78 1007.7
20260506191110 17 242 6.4 17.7 0.00 0.41 0.43 77 1007.5
20260506190114 17 163 4.8 12.9 0.00 0.41 0.43 81 1007.4
20260506185052 16 195 4.8 9.7 0.00 0.41 0.43 83 1007.5
20260506184044 16 256 3.2 9.7 0.00 0.41 0.43 86 1007.5
20260506183017 16 178 0.0 0.0 0.00 0.41 0.43 90 1007.4
20260506182001 16 178 1.6 0.0 0.00 0.41 0.43 89 1007.6
20260506180951 16 219 0.0 0.0 0.00 0.41 0.43 89 1007.6
20260506175921 16 251 0.0 1.6 0.00 0.41 0.43 89 1007.5
20260506174921 16 271 0.0 0.0 0.00 0.41 0.43 89 1007.3
20260506172748 16 164 1.6 4.8 0.00 0.41 0.43 89 1007.3
20260506171741 16 201 1.6 4.8 0.00 0.41 0.43 89 1007.2
20260506170744 15 184 1.6 4.8 0.00 0.41 0.43 89 1007.1
20260506165809 15 181 1.6 4.8 0.00 0.41 0.43 90 1007.1
20260506164833 15 144 1.6 4.8 0.00 0.41 0.43 90 1007.2
20260506163857 15 193 0.0 4.8 0.00 0.41 0.43 89 1007.1
20260506162902 15 256 0.0 0.0 0.00 0.41 0.43 90 1007.3
20260506161910 15 256 0.0 0.0 0.03 0.41 0.43 90 1007.4
20260506155751 15 243 0.0 1.6 0.00 0.41 0.41 89 1007.3
20260506154753 15 219 0.0 0.0 0.00 0.41 0.41 90 1007.2
20260506153815 15 219 0.0 0.0 0.00 0.41 0.41 90 1007.1
20260506152829 15 273 0.0 0.0 0.00 0.41 0.41 90 1007.0
20260506151809 15 256 1.6 4.8 0.00 0.41 0.41 90 1006.9
20260506150835 15 288 0.0 0.0 0.00 0.41 0.41 91 1006.7
20260506145847 15 288 0.0 0.0 0.00 0.41 0.41 90 1006.7
20260506144908 15 288 0.0 0.0 0.00 0.41 0.41 91 1006.7
20260506143914 15 288 0.0 0.0 0.00 0.41 0.41 91 1006.5
20260506141730 14 288 0.0 0.0 0.00 0.41 0.41 91 1006.4
20260506140742 14 288 0.0 0.0 0.00 0.41 0.41 91 1006.6
20260506134659 14 288 0.0 0.0 0.13 0.41 0.41 91 1006.8
20260506133720 14 288 0.0 0.0 0.13 0.36 0.41 90 1007.0
20260506132703 14 288 0.0 0.0 0.10 0.36 0.38 91 1006.9
20260506131628 13 288 0.0 0.0 0.10 0.33 0.33 90 1006.9
20260506130625 13 288 0.0 0.0 0.03 0.33 0.33 90 1006.9
20260506125614 13 288 0.0 0.0 0.03 0.33 0.33 90 1006.9